Time,TemperatureF,DewpointF,PressureIn,WindDirection,WindDirectionDegrees,WindSpeedMPH,WindSpeedGustMPH,Humidity,HourlyPrecipIn,Conditions,Clouds,dailyrainin,SoftwareType,DateUTC
2013-01-18 00:05:00,22.4,12.1,30.11,ENE,68,3.0,8.0,64,0.00,,,0.00,Wunderground v.1.15,2013-01-18 05:05:00,
2013-01-18 00:10:00,22.4,12.1,30.10,NNE,30,3.0,3.0,64,0.00,,,0.00,Wunderground v.1.15,2013-01-18 05:10:00,
2013-01-18 00:15:00,22.4,12.4,30.09,NNE,22,2.0,8.0,65,0.00,,,0.00,Wunderground v.1.15,2013-01-18 05:15:00,
2013-01-18 00:20:00,22.3,12.3,30.07,ENE,68,2.0,8.0,65,0.00,,,0.00,Wunderground v.1.15,2013-01-18 05:20:00,
2013-01-18 00:25:00,22.2,11.9,30.06,North,360,3.0,8.0,64,0.00,,,0.00,Wunderground v.1.15,2013-01-18 05:25:00,
2013-01-18 00:30:00,22.2,11.9,30.07,ENE,64,4.0,4.0,64,0.00,,,0.00,Wunderground v.1.15,2013-01-18 05:30:00,
2013-01-18 00:35:00,22.1,11.8,30.07,NE,46,4.0,8.0,64,0.00,,,0.00,Wunderground v.1.15,2013-01-18 05:35:00,
2013-01-18 00:40:00,22.1,12.1,30.07,NNE,26,3.0,3.0,65,0.00,,,0.00,Wunderground v.1.15,2013-01-18 05:40:00,
2013-01-18 00:50:00,22.0,12.0,30.08,ENE,71,2.0,8.0,65,0.00,,,0.00,Wunderground v.1.15,2013-01-18 05:50:00,
2013-01-18 00:55:00,21.9,11.6,30.08,ENE,65,3.0,8.0,64,0.00,,,0.00,Wunderground v.1.15,2013-01-18 05:55:00,
2013-01-18 01:00:00,21.8,11.5,30.05,East,98,3.0,3.0,64,0.00,,,0.00,Wunderground v.1.15,2013-01-18 06:00:00,
2013-01-18 01:05:00,21.7,11.7,30.05,NE,55,3.0,8.0,65,0.00,,,0.00,Wunderground v.1.15,2013-01-18 06:05:00,
2013-01-18 01:10:00,21.6,12.0,30.05,NE,53,3.0,8.0,66,0.00,,,0.00,Wunderground v.1.15,2013-01-18 06:10:00,
2013-01-18 01:15:00,21.6,11.6,30.07,NE,53,3.0,8.0,65,0.00,,,0.00,Wunderground v.1.15,2013-01-18 06:15:00,
2013-01-18 01:25:00,21.6,12.0,30.09,ENE,64,2.0,8.0,66,0.00,,,0.00,Wunderground v.1.15,2013-01-18 06:25:00,
2013-01-18 01:30:00,21.6,12.0,30.10,East,88,1.0,8.0,66,0.00,,,0.00,Wunderground v.1.15,2013-01-18 06:30:00,
2013-01-18 01:35:00,21.6,12.0,30.10,ENE,74,1.0,8.0,66,0.00,,,0.00,Wunderground v.1.15,2013-01-18 06:35:00,
2013-01-18 01:40:00,21.6,12.3,30.10,ENE,61,1.0,1.0,67,0.00,,,0.00,Wunderground v.1.15,2013-01-18 06:40:00,
2013-01-18 01:45:00,21.5,12.2,30.09,East,93,1.0,8.0,67,0.00,,,0.00,Wunderground v.1.15,2013-01-18 06:45:00,
2013-01-18 01:55:00,21.3,12.0,30.10,NE,51,2.0,8.0,67,0.00,,,0.00,Wunderground v.1.15,2013-01-18 06:55:00,
2013-01-18 02:00:00,21.3,12.0,30.12,NNE,33,2.0,8.0,67,0.00,,,0.00,Wunderground v.1.15,2013-01-18 07:00:00,
2013-01-18 02:05:00,21.2,11.9,30.11,ENE,63,3.0,8.0,67,0.00,,,0.00,Wunderground v.1.15,2013-01-18 07:05:00,
2013-01-18 02:15:00,21.2,12.6,30.11,ENE,77,2.0,8.0,69,0.00,,,0.00,Wunderground v.1.15,2013-01-18 07:15:00,
2013-01-18 02:20:00,21.2,13.3,30.12,NNE,32,1.0,1.0,71,0.00,,,0.00,Wunderground v.1.15,2013-01-18 07:20:00,
2013-01-18 02:30:00,21.0,13.1,30.10,NNE,26,1.0,1.0,71,0.00,,,0.00,Wunderground v.1.15,2013-01-18 07:30:00,
2013-01-18 02:35:00,20.9,13.3,30.11,ENE,58,1.0,2.0,72,0.00,,,0.00,Wunderground v.1.15,2013-01-18 07:35:00,
2013-01-18 02:40:00,20.8,13.2,30.12,ENE,76,1.0,1.0,72,0.00,,,0.00,Wunderground v.1.15,2013-01-18 07:40:00,
2013-01-18 02:50:00,20.6,12.7,30.11,NNE,14,3.0,8.0,71,0.00,,,0.00,Wunderground v.1.15,2013-01-18 07:50:00,
2013-01-18 02:55:00,20.4,12.5,30.11,NE,34,3.0,8.0,71,0.00,,,0.00,Wunderground v.1.15,2013-01-18 07:55:00,
2013-01-18 03:00:00,20.3,12.1,30.12,East,86,3.0,3.0,70,0.00,,,0.00,Wunderground v.1.15,2013-01-18 08:00:00,
2013-01-18 03:05:00,20.3,12.1,30.11,NNE,28,2.0,8.0,70,0.00,,,0.00,Wunderground v.1.15,2013-01-18 08:05:00,
2013-01-18 03:10:00,20.2,11.7,30.11,ENE,57,2.0,8.0,69,0.00,,,0.00,Wunderground v.1.15,2013-01-18 08:10:00,
2013-01-18 03:15:00,20.1,11.2,30.11,ENE,57,2.0,8.0,68,0.00,,,0.00,Wunderground v.1.15,2013-01-18 08:15:00,
2013-01-18 03:20:00,20.0,11.1,30.11,NNE,26,2.0,8.0,68,0.00,,,0.00,Wunderground v.1.15,2013-01-18 08:20:00,
2013-01-18 03:25:00,19.9,10.7,30.12,NNE,20,2.0,8.0,67,0.00,,,0.00,Wunderground v.1.15,2013-01-18 08:25:00,
2013-01-18 03:35:00,19.7,10.2,30.12,North,5,5.0,5.0,66,0.00,,,0.00,Wunderground v.1.15,2013-01-18 08:35:00,
2013-01-18 03:40:00,19.6,10.7,30.13,NE,47,4.0,8.0,68,0.00,,,0.00,Wunderground v.1.15,2013-01-18 08:40:00,
2013-01-18 03:45:00,19.6,10.7,30.13,NNE,15,3.0,8.0,68,0.00,,,0.00,Wunderground v.1.15,2013-01-18 08:45:00,
2013-01-18 03:50:00,19.4,10.6,30.12,NNE,33,4.0,8.0,68,0.00,,,0.00,Wunderground v.1.15,2013-01-18 08:50:00,
2013-01-18 03:55:00,19.3,10.5,30.13,ENE,57,3.0,8.0,68,0.00,,,0.00,Wunderground v.1.15,2013-01-18 08:55:00,
2013-01-18 04:00:00,19.0,9.8,30.13,North,10,3.0,3.0,67,0.00,,,0.00,Wunderground v.1.15,2013-01-18 09:00:00,
2013-01-18 04:05:00,18.8,9.6,30.13,NNE,22,3.0,8.0,67,0.00,,,0.00,Wunderground v.1.15,2013-01-18 09:05:00,
2013-01-18 04:10:00,18.7,9.6,30.13,NE,53,3.0,3.0,67,0.00,,,0.00,Wunderground v.1.15,2013-01-18 09:10:00,
2013-01-18 04:20:00,18.3,9.2,30.14,NE,42,3.0,3.0,67,0.00,,,0.00,Wunderground v.1.15,2013-01-18 09:20:00,
2013-01-18 04:25:00,18.1,9.3,30.14,NNE,31,3.0,8.0,68,0.00,,,0.00,Wunderground v.1.15,2013-01-18 09:25:00,
2013-01-18 04:30:00,18.0,9.2,30.15,ENE,59,2.0,2.0,68,0.00,,,0.00,Wunderground v.1.15,2013-01-18 09:30:00,
2013-01-18 04:35:00,17.9,9.4,30.15,NE,44,2.0,8.0,69,0.00,,,0.00,Wunderground v.1.15,2013-01-18 09:35:00,
2013-01-18 04:40:00,17.7,9.2,30.15,North,5,2.0,2.0,69,0.00,,,0.00,Wunderground v.1.15,2013-01-18 09:40:00,
2013-01-18 04:45:00,17.6,9.5,30.16,NE,43,1.0,8.0,70,0.00,,,0.00,Wunderground v.1.15,2013-01-18 09:45:00,
2013-01-18 04:50:00,17.5,9.4,30.17,NNE,27,1.0,8.0,70,0.00,,,0.00,Wunderground v.1.15,2013-01-18 09:50:00,
2013-01-18 05:00:00,17.3,9.2,30.17,NNE,23,4.0,4.0,70,0.00,,,0.00,Wunderground v.1.15,2013-01-18 10:00:00,
2013-01-18 05:05:00,17.3,9.5,30.17,NE,51,5.0,5.0,71,0.00,,,0.00,Wunderground v.1.15,2013-01-18 10:05:00,
2013-01-18 05:10:00,17.2,9.4,30.17,NE,36,4.0,8.0,71,0.00,,,0.00,Wunderground v.1.15,2013-01-18 10:10:00,
2013-01-18 05:15:00,17.1,9.3,30.18,North,5,4.0,8.0,71,0.00,,,0.00,Wunderground v.1.15,2013-01-18 10:15:00,
2013-01-18 05:20:00,17.1,9.6,30.19,ENE,59,3.0,8.0,72,0.00,,,0.00,Wunderground v.1.15,2013-01-18 10:20:00,
2013-01-18 05:25:00,17.1,9.3,30.19,NE,55,2.0,8.0,71,0.00,,,0.00,Wunderground v.1.15,2013-01-18 10:25:00,
2013-01-18 05:35:00,17.1,9.0,30.20,NE,51,4.0,8.0,70,0.00,,,0.00,Wunderground v.1.15,2013-01-18 10:35:00,
2013-01-18 05:40:00,17.1,9.0,30.20,East,87,3.0,8.0,70,0.00,,,0.00,Wunderground v.1.15,2013-01-18 10:40:00,
2013-01-18 05:45:00,17.0,8.6,30.20,NE,56,4.0,8.0,69,0.00,,,0.00,Wunderground v.1.15,2013-01-18 10:45:00,
2013-01-18 05:50:00,16.9,8.5,30.20,North,360,5.0,5.0,69,0.00,,,0.00,Wunderground v.1.15,2013-01-18 10:50:00,
2013-01-18 05:55:00,16.8,8.7,30.21,NE,44,4.0,8.0,70,0.00,,,0.00,Wunderground v.1.15,2013-01-18 10:55:00,
2013-01-18 06:00:00,16.6,8.2,30.21,ENE,73,3.0,8.0,69,0.00,,,0.00,Wunderground v.1.15,2013-01-18 11:00:00,
2013-01-18 06:10:00,16.3,7.9,30.22,NE,35,3.0,3.0,69,0.00,,,0.00,Wunderground v.1.15,2013-01-18 11:10:00,
2013-01-18 06:15:00,16.2,7.8,30.23,East,86,4.0,5.0,69,0.00,,,0.00,Wunderground v.1.15,2013-01-18 11:15:00,
2013-01-18 06:20:00,16.1,7.4,30.24,NE,47,4.0,4.0,68,0.00,,,0.00,Wunderground v.1.15,2013-01-18 11:20:00,
2013-01-18 06:25:00,16.0,7.3,30.24,NNE,23,4.0,8.0,68,0.00,,,0.00,Wunderground v.1.15,2013-01-18 11:25:00,
2013-01-18 06:30:00,15.8,7.1,30.25,NNE,22,4.0,8.0,68,0.00,,,0.00,Wunderground v.1.15,2013-01-18 11:30:00,
2013-01-18 06:35:00,15.7,6.7,30.25,NNE,21,5.0,8.0,67,0.00,,,0.00,Wunderground v.1.15,2013-01-18 11:35:00,
2013-01-18 06:40:00,15.5,6.8,30.25,NE,46,5.0,5.0,68,0.00,,,0.00,Wunderground v.1.15,2013-01-18 11:40:00,
2013-01-18 06:50:00,15.2,6.2,30.26,NNE,19,3.0,3.0,67,0.00,,,0.00,Wunderground v.1.15,2013-01-18 11:50:00,
2013-01-18 06:55:00,15.0,6.0,30.26,NE,40,4.0,4.0,67,0.00,,,0.00,Wunderground v.1.15,2013-01-18 11:55:00,
2013-01-18 07:00:00,14.9,5.9,30.27,NE,46,3.0,8.0,67,0.00,,,0.00,Wunderground v.1.15,2013-01-18 12:00:00,
2013-01-18 07:05:00,14.8,6.1,30.28,ENE,65,3.0,8.0,68,0.00,,,0.00,Wunderground v.1.15,2013-01-18 12:05:00,
2013-01-18 07:10:00,14.7,6.0,30.28,NNE,15,2.0,8.0,68,0.00,,,0.00,Wunderground v.1.15,2013-01-18 12:10:00,
2013-01-18 07:15:00,14.6,6.3,30.28,NNE,33,1.0,8.0,69,0.00,,,0.00,Wunderground v.1.15,2013-01-18 12:15:00,
2013-01-18 07:20:00,14.5,6.2,30.29,NE,46,1.0,1.0,69,0.00,,,0.00,Wunderground v.1.15,2013-01-18 12:20:00,
2013-01-18 07:30:00,14.4,6.7,30.29,ENE,65,2.0,8.0,71,0.00,,,0.00,Wunderground v.1.15,2013-01-18 12:30:00,
2013-01-18 07:40:00,14.6,6.9,30.30,NW,326,3.0,8.0,71,0.00,,,0.00,Wunderground v.1.15,2013-01-18 12:40:00,
2013-01-18 07:45:00,14.8,6.8,30.30,ENE,73,3.0,8.0,70,0.00,,,0.00,Wunderground v.1.15,2013-01-18 12:45:00,
2013-01-18 07:50:00,15.0,7.0,30.31,NNE,26,3.0,3.0,70,0.00,,,0.00,Wunderground v.1.15,2013-01-18 12:50:00,
2013-01-18 07:55:00,15.2,7.2,30.31,ENE,61,2.0,8.0,70,0.00,,,0.00,Wunderground v.1.15,2013-01-18 12:55:00,
2013-01-18 08:00:00,15.4,7.4,30.32,East,79,1.0,8.0,70,0.00,,,0.00,Wunderground v.1.15,2013-01-18 13:00:00,
2013-01-18 08:05:00,15.6,7.2,30.32,East,84,2.0,8.0,69,0.00,,,0.00,Wunderground v.1.15,2013-01-18 13:05:00,
2013-01-18 08:15:00,15.9,6.9,30.33,NE,51,3.0,8.0,67,0.00,,,0.00,Wunderground v.1.15,2013-01-18 13:15:00,
2013-01-18 08:20:00,15.9,6.9,30.33,NNW,342,3.0,3.0,67,0.00,,,0.00,Wunderground v.1.15,2013-01-18 13:20:00,
2013-01-18 08:30:00,16.2,6.8,30.34,North,355,2.0,2.0,66,0.00,,,0.00,Wunderground v.1.15,2013-01-18 13:30:00,
2013-01-18 08:35:00,16.6,6.9,30.34,ENE,66,1.0,8.0,65,0.00,,,0.00,Wunderground v.1.15,2013-01-18 13:35:00,
2013-01-18 08:40:00,16.4,6.3,30.34,NE,35,2.0,2.0,64,0.00,,,0.00,Wunderground v.1.15,2013-01-18 13:40:00,
2013-01-18 08:50:00,16.2,5.8,30.35,East,97,5.0,8.0,63,0.00,,,0.00,Wunderground v.1.15,2013-01-18 13:50:00,
2013-01-18 08:55:00,16.3,5.2,30.35,NNW,346,4.0,8.0,61,0.00,,,0.00,Wunderground v.1.15,2013-01-18 13:55:00,
2013-01-18 09:05:00,16.3,4.5,30.35,North,5,5.0,8.0,59,0.00,,,0.00,Wunderground v.1.15,2013-01-18 14:05:00,
2013-01-18 09:10:00,16.3,4.5,30.36,ENE,70,5.0,11.0,59,0.00,,,0.00,Wunderground v.1.15,2013-01-18 14:10:00,
2013-01-18 09:15:00,16.3,4.5,30.36,NE,38,5.0,11.0,59,0.00,,,0.00,Wunderground v.1.15,2013-01-18 14:15:00,
2013-01-18 09:20:00,16.5,3.9,30.37,ENE,57,4.0,4.0,57,0.00,,,0.00,Wunderground v.1.15,2013-01-18 14:20:00,
2013-01-18 09:25:00,16.9,4.3,30.37,North,355,3.0,8.0,57,0.00,,,0.00,Wunderground v.1.15,2013-01-18 14:25:00,
2013-01-18 09:30:00,17.4,4.4,30.38,North,5,3.0,8.0,56,0.00,,,0.00,Wunderground v.1.15,2013-01-18 14:30:00,
2013-01-18 09:35:00,17.4,3.6,30.38,ENE,59,3.0,8.0,54,0.00,,,0.00,Wunderground v.1.15,2013-01-18 14:35:00,
2013-01-18 09:45:00,16.8,3.0,30.39,ENE,76,5.0,8.0,54,0.00,,,0.00,Wunderground v.1.15,2013-01-18 14:45:00,
2013-01-18 09:50:00,16.8,3.4,30.39,NNE,14,5.0,8.0,55,0.00,,,0.00,Wunderground v.1.15,2013-01-18 14:50:00,
2013-01-18 09:55:00,16.9,2.7,30.39,North,355,5.0,8.0,53,0.00,,,0.00,Wunderground v.1.15,2013-01-18 14:55:00,
2013-01-18 10:00:00,17.3,3.1,30.39,NE,44,4.0,8.0,53,0.00,,,0.00,Wunderground v.1.15,2013-01-18 15:00:00,
2013-01-18 10:05:00,17.8,3.9,30.40,NNE,17,3.0,8.0,54,0.00,,,0.00,Wunderground v.1.15,2013-01-18 15:05:00,
2013-01-18 10:10:00,17.7,3.8,30.40,NNE,19,4.0,4.0,54,0.00,,,0.00,Wunderground v.1.15,2013-01-18 15:10:00,
2013-01-18 10:15:00,18.2,3.9,30.40,NNE,32,3.0,5.0,53,0.00,,,0.00,Wunderground v.1.15,2013-01-18 15:15:00,
2013-01-18 10:25:00,18.7,4.4,30.41,North,355,3.0,8.0,53,0.00,,,0.00,Wunderground v.1.15,2013-01-18 15:25:00,
2013-01-18 10:30:00,19.2,4.4,30.40,West,281,2.0,2.0,52,0.00,,,0.00,Wunderground v.1.15,2013-01-18 15:30:00,
2013-01-18 10:35:00,18.9,3.3,30.40,NE,46,4.0,4.0,50,0.00,,,0.00,Wunderground v.1.15,2013-01-18 15:35:00,
2013-01-18 10:40:00,18.6,2.1,30.41,NNE,28,5.0,8.0,48,0.00,,,0.00,Wunderground v.1.15,2013-01-18 15:40:00,
2013-01-18 10:45:00,18.4,2.0,30.41,NE,42,6.0,8.0,48,0.00,,,0.00,Wunderground v.1.15,2013-01-18 15:45:00,
2013-01-18 10:50:00,18.8,2.3,30.41,North,360,5.0,5.0,48,0.00,,,0.00,Wunderground v.1.15,2013-01-18 15:50:00,
2013-01-18 10:55:00,19.5,3.9,30.41,ESE,107,3.0,8.0,50,0.00,,,0.00,Wunderground v.1.15,2013-01-18 15:55:00,
2013-01-18 11:00:00,19.7,2.2,30.41,ESE,109,3.0,8.0,46,0.00,,,0.00,Wunderground v.1.15,2013-01-18 16:00:00,
2013-01-18 11:05:00,19.2,1.8,30.41,NNE,15,4.0,8.0,46,0.00,,,0.00,Wunderground v.1.15,2013-01-18 16:05:00,
2013-01-18 11:15:00,20.1,2.6,30.40,East,80,2.0,5.0,46,0.00,,,0.00,Wunderground v.1.15,2013-01-18 16:15:00,
2013-01-18 11:20:00,20.1,2.6,30.40,ENE,62,3.0,3.0,46,0.00,,,0.00,Wunderground v.1.15,2013-01-18 16:20:00,
2013-01-18 11:25:00,20.7,3.2,30.41,WNW,296,3.0,5.0,46,0.00,,,0.00,Wunderground v.1.15,2013-01-18 16:25:00,
2013-01-18 11:30:00,20.7,3.6,30.41,NNE,19,3.0,3.0,47,0.00,,,0.00,Wunderground v.1.15,2013-01-18 16:30:00,
2013-01-18 11:35:00,20.8,4.2,30.41,NNE,12,3.0,8.0,48,0.00,,,0.00,Wunderground v.1.15,2013-01-18 16:35:00,
2013-01-18 11:40:00,20.5,3.0,30.40,NE,56,3.0,8.0,46,0.00,,,0.00,Wunderground v.1.15,2013-01-18 16:40:00,
2013-01-18 11:45:00,20.1,3.1,30.40,North,360,4.0,8.0,47,0.00,,,0.00,Wunderground v.1.15,2013-01-18 16:45:00,
2013-01-18 11:55:00,19.3,1.9,30.40,NNE,32,6.0,8.0,46,0.00,,,0.00,Wunderground v.1.15,2013-01-18 16:55:00,
2013-01-18 12:00:00,19.5,2.5,30.40,NE,39,5.0,5.0,47,0.00,,,0.00,Wunderground v.1.15,2013-01-18 17:00:00,
2013-01-18 12:05:00,20.2,3.6,30.39,ENE,74,4.0,8.0,48,0.00,,,0.00,Wunderground v.1.15,2013-01-18 17:05:00,
2013-01-18 12:15:00,20.0,2.5,30.39,North,5,5.0,5.0,46,0.00,,,0.00,Wunderground v.1.15,2013-01-18 17:15:00,
2013-01-18 12:20:00,20.3,2.8,30.39,NE,55,4.0,8.0,46,0.00,,,0.00,Wunderground v.1.15,2013-01-18 17:20:00,
2013-01-18 12:25:00,20.8,3.7,30.39,East,83,3.0,8.0,47,0.00,,,0.00,Wunderground v.1.15,2013-01-18 17:25:00,
2013-01-18 12:35:00,20.8,3.2,30.40,North,9,4.0,8.0,46,0.00,,,0.00,Wunderground v.1.15,2013-01-18 17:35:00,
2013-01-18 12:40:00,21.5,4.4,30.40,NNE,26,3.0,3.0,47,0.00,,,0.00,Wunderground v.1.15,2013-01-18 17:40:00,
2013-01-18 12:50:00,22.1,4.4,30.40,NNE,25,3.0,8.0,46,0.00,,,0.00,Wunderground v.1.15,2013-01-18 17:50:00,
2013-01-18 12:55:00,21.9,3.8,30.40,NE,53,4.0,8.0,45,0.00,,,0.00,Wunderground v.1.15,2013-01-18 17:55:00,
2013-01-18 13:00:00,21.6,4.9,30.40,NNE,28,4.0,8.0,48,0.00,,,0.00,Wunderground v.1.15,2013-01-18 18:00:00,
2013-01-18 13:05:00,22.3,6.0,30.40,WSW,240,3.0,8.0,49,0.00,,,0.00,Wunderground v.1.15,2013-01-18 18:05:00,
2013-01-18 13:15:00,24.0,5.2,30.40,West,273,1.0,8.0,44,0.00,,,0.00,Wunderground v.1.15,2013-01-18 18:15:00,
2013-01-18 13:20:00,23.5,5.2,30.40,NW,321,2.0,8.0,45,0.00,,,0.00,Wunderground v.1.15,2013-01-18 18:20:00,
2013-01-18 13:25:00,23.2,6.4,30.41,ENE,59,4.0,8.0,48,0.00,,,0.00,Wunderground v.1.15,2013-01-18 18:25:00,
2013-01-18 13:30:00,22.5,4.8,30.41,NNE,24,5.0,5.0,46,0.00,,,0.00,Wunderground v.1.15,2013-01-18 18:30:00,
2013-01-18 13:35:00,22.2,4.5,30.41,NNE,22,6.0,6.0,46,0.00,,,0.00,Wunderground v.1.15,2013-01-18 18:35:00,
2013-01-18 13:40:00,22.4,5.6,30.41,NNE,26,5.0,5.0,48,0.00,,,0.00,Wunderground v.1.15,2013-01-18 18:40:00,
2013-01-18 13:45:00,23.1,5.8,30.42,ENE,65,3.0,8.0,47,0.00,,,0.00,Wunderground v.1.15,2013-01-18 18:45:00,
2013-01-18 13:50:00,23.0,5.7,30.42,NNE,24,4.0,4.0,47,0.00,,,0.00,Wunderground v.1.15,2013-01-18 18:50:00,
2013-01-18 14:00:00,23.7,5.4,30.42,NNW,340,3.0,3.0,45,0.00,,,0.00,Wunderground v.1.15,2013-01-18 19:00:00,
2013-01-18 14:10:00,23.1,4.9,30.42,NW,313,4.0,4.0,45,0.00,,,0.00,Wunderground v.1.15,2013-01-18 19:10:00,
2013-01-18 14:15:00,23.3,5.5,30.42,NNE,30,3.0,8.0,46,0.00,,,0.00,Wunderground v.1.15,2013-01-18 19:15:00,
2013-01-18 14:20:00,23.6,5.8,30.42,NNW,342,2.0,2.0,46,0.00,,,0.00,Wunderground v.1.15,2013-01-18 19:20:00,
2013-01-18 14:25:00,24.1,6.3,30.42,NE,53,2.0,8.0,46,0.00,,,0.00,Wunderground v.1.15,2013-01-18 19:25:00,
2013-01-18 14:35:00,23.7,6.8,30.42,WNW,299,3.0,8.0,48,0.00,,,0.00,Wunderground v.1.15,2013-01-18 19:35:00,
2013-01-18 14:40:00,23.4,5.6,30.42,NE,36,3.0,3.0,46,0.00,,,0.00,Wunderground v.1.15,2013-01-18 19:40:00,
2013-01-18 14:50:00,24.1,6.7,30.41,NW,323,2.0,8.0,47,0.00,,,0.00,Wunderground v.1.15,2013-01-18 19:50:00,
2013-01-18 14:55:00,24.2,7.3,30.41,NW,309,2.0,8.0,48,0.00,,,0.00,Wunderground v.1.15,2013-01-18 19:55:00,
2013-01-18 15:00:00,23.9,5.6,30.41,NNE,24,3.0,8.0,45,0.00,,,0.00,Wunderground v.1.15,2013-01-18 20:00:00,
2013-01-18 15:05:00,24.3,6.9,30.41,WNW,294,2.0,8.0,47,0.00,,,0.00,Wunderground v.1.15,2013-01-18 20:05:00,
2013-01-18 15:10:00,24.5,6.6,30.41,NW,311,1.0,8.0,46,0.00,,,0.00,Wunderground v.1.15,2013-01-18 20:10:00,
2013-01-18 15:15:00,24.6,7.2,30.41,NW,311,1.0,8.0,47,0.00,,,0.00,Wunderground v.1.15,2013-01-18 20:15:00,
2013-01-18 15:20:00,24.4,6.6,30.41,NW,317,2.0,2.0,46,0.00,,,0.00,Wunderground v.1.15,2013-01-18 20:20:00,
2013-01-18 15:30:00,23.8,6.5,30.42,ENE,64,1.0,1.0,47,0.00,,,0.00,Wunderground v.1.15,2013-01-18 20:30:00,
2013-01-18 15:35:00,23.5,7.1,30.42,NNW,340,0.0,2.0,49,0.00,,,0.00,Wunderground v.1.15,2013-01-18 20:35:00,
2013-01-18 15:45:00,23.1,6.7,30.41,WNW,301,1.0,8.0,49,0.00,,,0.00,Wunderground v.1.15,2013-01-18 20:45:00,
2013-01-18 15:50:00,23.2,6.4,30.42,WNW,300,1.0,8.0,48,0.00,,,0.00,Wunderground v.1.15,2013-01-18 20:50:00,
2013-01-18 15:55:00,22.8,6.0,30.42,WNW,290,1.0,8.0,48,0.00,,,0.00,Wunderground v.1.15,2013-01-18 20:55:00,
2013-01-18 16:00:00,22.7,5.9,30.42,North,355,1.0,8.0,48,0.00,,,0.00,Wunderground v.1.15,2013-01-18 21:00:00,
2013-01-18 16:05:00,22.4,6.5,30.42,North,355,1.0,8.0,50,0.00,,,0.00,Wunderground v.1.15,2013-01-18 21:05:00,
2013-01-18 16:15:00,21.9,6.1,30.42,NNW,338,1.0,8.0,50,0.00,,,0.00,Wunderground v.1.15,2013-01-18 21:15:00,
2013-01-18 16:20:00,21.7,5.9,30.43,NE,46,1.0,1.0,50,0.00,,,0.00,Wunderground v.1.15,2013-01-18 21:20:00,
2013-01-18 16:25:00,21.5,7.0,30.43,NW,321,1.0,8.0,53,0.00,,,0.00,Wunderground v.1.15,2013-01-18 21:25:00,
2013-01-18 16:30:00,21.3,6.0,30.43,NW,323,0.0,8.0,51,0.00,,,0.00,Wunderground v.1.15,2013-01-18 21:30:00,
2013-01-18 16:35:00,21.1,7.0,30.43,North,355,1.0,8.0,54,0.00,,,0.00,Wunderground v.1.15,2013-01-18 21:35:00,
2013-01-18 16:40:00,20.9,6.4,30.43,ENE,57,1.0,8.0,53,0.00,,,0.00,Wunderground v.1.15,2013-01-18 21:40:00,
2013-01-18 16:50:00,20.6,5.7,30.42,NNE,17,0.0,8.0,52,0.00,,,0.00,Wunderground v.1.15,2013-01-18 21:50:00,
2013-01-18 16:55:00,20.4,6.0,30.43,NNE,17,0.0,8.0,53,0.00,,,0.00,Wunderground v.1.15,2013-01-18 21:55:00,
2013-01-18 17:00:00,20.3,6.3,30.43,NNE,17,0.0,8.0,54,0.00,,,0.00,Wunderground v.1.15,2013-01-18 22:00:00,
2013-01-18 17:10:00,19.7,6.1,30.43,NNE,17,0.0,8.0,55,0.00,,,0.00,Wunderground v.1.15,2013-01-18 22:10:00,
2013-01-18 17:15:00,19.5,5.9,30.44,NNE,17,0.0,8.0,55,0.00,,,0.00,Wunderground v.1.15,2013-01-18 22:15:00,
2013-01-18 17:20:00,19.2,9.0,30.44,NNE,17,0.0,8.0,64,0.00,,,0.00,Wunderground v.1.15,2013-01-18 22:20:00,
2013-01-18 17:25:00,18.9,7.3,30.44,NNE,17,0.0,8.0,60,0.00,,,0.00,Wunderground v.1.15,2013-01-18 22:25:00,
2013-01-18 17:30:00,18.5,6.9,30.44,NNE,17,0.0,8.0,60,0.00,,,0.00,Wunderground v.1.15,2013-01-18 22:30:00,
2013-01-18 17:35:00,18.3,6.4,30.44,NNE,17,0.0,8.0,59,0.00,,,0.00,Wunderground v.1.15,2013-01-18 22:35:00,
2013-01-18 17:40:00,18.1,7.3,30.45,NNE,17,0.0,8.0,62,0.00,,,0.00,Wunderground v.1.15,2013-01-18 22:40:00,
2013-01-18 17:50:00,17.7,6.2,30.45,NNE,17,0.0,8.0,60,0.00,,,0.00,Wunderground v.1.15,2013-01-18 22:50:00,
2013-01-18 17:55:00,17.6,6.1,30.45,NNE,17,0.0,8.0,60,0.00,,,0.00,Wunderground v.1.15,2013-01-18 22:55:00,
2013-01-18 18:00:00,17.6,6.1,30.45,NNE,17,0.0,8.0,60,0.00,,,0.00,Wunderground v.1.15,2013-01-18 23:00:00,
2013-01-18 18:05:00,17.5,6.7,30.46,NNE,17,0.0,8.0,62,0.00,,,0.00,Wunderground v.1.15,2013-01-18 23:05:00,
2013-01-18 18:10:00,17.4,7.3,30.46,North,355,0.0,8.0,64,0.00,,,0.00,Wunderground v.1.15,2013-01-18 23:10:00,
2013-01-18 18:15:00,17.4,7.6,30.46,North,355,0.0,8.0,65,0.00,,,0.00,Wunderground v.1.15,2013-01-18 23:15:00,
2013-01-18 18:20:00,17.3,7.9,30.46,North,355,0.0,8.0,66,0.00,,,0.00,Wunderground v.1.15,2013-01-18 23:20:00,
2013-01-18 18:30:00,17.0,7.9,30.46,North,355,0.0,8.0,67,0.00,,,0.00,Wunderground v.1.15,2013-01-18 23:30:00,
2013-01-18 18:35:00,17.1,7.7,30.46,North,355,0.0,8.0,66,0.00,,,0.00,Wunderground v.1.15,2013-01-18 23:35:00,
2013-01-18 18:40:00,17.3,7.2,30.47,NNW,344,0.0,8.0,64,0.00,,,0.00,Wunderground v.1.15,2013-01-18 23:40:00,
2013-01-18 18:45:00,17.5,7.4,30.47,NNW,344,0.0,8.0,64,0.00,,,0.00,Wunderground v.1.15,2013-01-18 23:45:00,
2013-01-18 18:50:00,17.6,7.1,30.46,NNW,342,0.0,8.0,63,0.00,,,0.00,Wunderground v.1.15,2013-01-18 23:50:00,
2013-01-18 18:55:00,17.6,7.1,30.46,NNW,342,0.0,8.0,63,0.00,,,0.00,Wunderground v.1.15,2013-01-18 23:55:00,
2013-01-18 19:05:00,17.2,7.4,30.46,NNW,342,0.0,8.0,65,0.00,,,0.00,Wunderground v.1.15,2013-01-19 00:05:00,
2013-01-18 19:15:00,16.9,7.5,30.46,NNW,342,0.0,8.0,66,0.00,,,0.00,Wunderground v.1.15,2013-01-19 00:15:00,
2013-01-18 19:20:00,16.6,8.8,30.46,NNW,342,0.0,8.0,71,0.00,,,0.00,Wunderground v.1.15,2013-01-19 00:20:00,
2013-01-18 19:25:00,16.4,9.3,30.46,NNW,342,0.0,8.0,73,0.00,,,0.00,Wunderground v.1.15,2013-01-19 00:25:00,
2013-01-18 19:30:00,16.3,8.5,30.46,NW,313,0.0,8.0,71,0.00,,,0.00,Wunderground v.1.15,2013-01-19 00:30:00,
2013-01-18 19:35:00,16.6,7.9,30.46,WNW,290,0.0,8.0,68,0.00,,,0.00,Wunderground v.1.15,2013-01-19 00:35:00,
2013-01-18 19:40:00,16.9,8.5,30.46,WNW,290,0.0,8.0,69,0.00,,,0.00,Wunderground v.1.15,2013-01-19 00:40:00,
2013-01-18 19:50:00,17.3,7.9,30.45,West,281,1.0,8.0,66,0.00,,,0.00,Wunderground v.1.15,2013-01-19 00:50:00,
2013-01-18 19:55:00,17.5,8.1,30.45,West,279,1.0,8.0,66,0.00,,,0.00,Wunderground v.1.15,2013-01-19 00:55:00,
2013-01-18 20:00:00,17.6,7.8,30.45,WNW,289,1.0,8.0,65,0.00,,,0.00,Wunderground v.1.15,2013-01-19 01:00:00,
2013-01-18 20:05:00,17.7,7.9,30.45,WNW,289,0.0,8.0,65,0.00,,,0.00,Wunderground v.1.15,2013-01-19 01:05:00,
2013-01-18 20:10:00,17.7,7.9,30.45,WNW,289,0.0,8.0,65,0.00,,,0.00,Wunderground v.1.15,2013-01-19 01:10:00,
2013-01-18 20:15:00,17.7,7.9,30.45,WNW,289,0.0,8.0,65,0.00,,,0.00,Wunderground v.1.15,2013-01-19 01:15:00,
2013-01-18 20:20:00,17.6,7.8,30.45,WNW,289,0.0,8.0,65,0.00,,,0.00,Wunderground v.1.15,2013-01-19 01:20:00,
2013-01-18 20:30:00,17.6,7.5,30.46,WNW,290,0.0,8.0,64,0.00,,,0.00,Wunderground v.1.15,2013-01-19 01:30:00,
2013-01-18 20:35:00,17.5,7.4,30.46,WNW,290,0.0,8.0,64,0.00,,,0.00,Wunderground v.1.15,2013-01-19 01:35:00,
2013-01-18 20:40:00,17.3,7.5,30.45,WNW,290,0.0,8.0,65,0.00,,,0.00,Wunderground v.1.15,2013-01-19 01:40:00,
2013-01-18 20:45:00,17.2,7.8,30.45,West,273,0.0,8.0,66,0.00,,,0.00,Wunderground v.1.15,2013-01-19 01:45:00,
2013-01-18 20:50:00,17.5,7.4,30.45,SW,223,1.0,1.0,64,0.00,,,0.00,Wunderground v.1.15,2013-01-19 01:50:00,
2013-01-18 20:55:00,17.7,7.2,30.45,WNW,285,1.0,8.0,63,0.00,,,0.00,Wunderground v.1.15,2013-01-19 01:55:00,
2013-01-18 21:00:00,17.9,7.8,30.44,WNW,285,0.0,8.0,64,0.00,,,0.00,Wunderground v.1.15,2013-01-19 02:00:00,
2013-01-18 21:10:00,17.7,7.9,30.43,WSW,240,1.0,8.0,65,0.00,,,0.00,Wunderground v.1.15,2013-01-19 02:10:00,
2013-01-18 21:15:00,17.9,7.4,30.44,West,262,1.0,8.0,63,0.00,,,0.00,Wunderground v.1.15,2013-01-19 02:15:00,
2013-01-18 21:20:00,18.1,7.6,30.43,SW,225,0.0,8.0,63,0.00,,,0.00,Wunderground v.1.15,2013-01-19 02:20:00,
2013-01-18 21:25:00,18.2,7.3,30.43,WSW,244,0.0,8.0,62,0.00,,,0.00,Wunderground v.1.15,2013-01-19 02:25:00,
2013-01-18 21:30:00,18.3,7.4,30.43,WSW,242,1.0,8.0,62,0.00,,,0.00,Wunderground v.1.15,2013-01-19 02:30:00,
2013-01-18 21:35:00,18.4,7.5,30.43,SW,230,1.0,8.0,62,0.00,,,0.00,Wunderground v.1.15,2013-01-19 02:35:00,
2013-01-18 21:45:00,18.7,7.8,30.43,WSW,247,1.0,8.0,62,0.00,,,0.00,Wunderground v.1.15,2013-01-19 02:45:00,
2013-01-18 21:50:00,18.7,7.8,30.43,West,269,2.0,2.0,62,0.00,,,0.00,Wunderground v.1.15,2013-01-19 02:50:00,
2013-01-18 21:55:00,18.7,7.8,30.43,SW,236,1.0,8.0,62,0.00,,,0.00,Wunderground v.1.15,2013-01-19 02:55:00,
2013-01-18 22:00:00,18.6,7.7,30.43,WNW,283,0.0,8.0,62,0.00,,,0.00,Wunderground v.1.15,2013-01-19 03:00:00,
2013-01-18 22:05:00,18.6,7.7,30.44,West,269,0.0,8.0,62,0.00,,,0.00,Wunderground v.1.15,2013-01-19 03:05:00,
2013-01-18 22:10:00,18.5,8.0,30.43,West,269,0.0,8.0,63,0.00,,,0.00,Wunderground v.1.15,2013-01-19 03:10:00,
2013-01-18 22:15:00,18.6,7.7,30.43,West,276,1.0,8.0,62,0.00,,,0.00,Wunderground v.1.15,2013-01-19 03:15:00,
2013-01-18 22:20:00,18.7,7.8,30.43,West,276,1.0,1.0,62,0.00,,,0.00,Wunderground v.1.15,2013-01-19 03:20:00,
2013-01-18 22:30:00,18.5,8.0,30.43,WSW,254,0.0,8.0,63,0.00,,,0.00,Wunderground v.1.15,2013-01-19 03:30:00,
2013-01-18 22:35:00,18.5,8.0,30.43,WSW,244,0.0,8.0,63,0.00,,,0.00,Wunderground v.1.15,2013-01-19 03:35:00,
2013-01-18 22:40:00,18.6,7.7,30.42,WSW,248,1.0,8.0,62,0.00,,,0.00,Wunderground v.1.15,2013-01-19 03:40:00,
2013-01-18 22:45:00,18.8,7.9,30.42,SW,233,1.0,8.0,62,0.00,,,0.00,Wunderground v.1.15,2013-01-19 03:45:00,
2013-01-18 22:50:00,18.9,8.4,30.42,West,265,2.0,8.0,63,0.00,,,0.00,Wunderground v.1.15,2013-01-19 03:50:00,
2013-01-18 22:55:00,19.0,8.1,30.41,WNW,297,2.0,8.0,62,0.00,,,0.00,Wunderground v.1.15,2013-01-19 03:55:00,
2013-01-18 23:05:00,19.0,8.5,30.41,West,273,1.0,8.0,63,0.00,,,0.00,Wunderground v.1.15,2013-01-19 04:05:00,
2013-01-18 23:10:00,19.0,8.5,30.41,West,281,1.0,8.0,63,0.00,,,0.00,Wunderground v.1.15,2013-01-19 04:10:00,
2013-01-18 23:15:00,19.1,8.6,30.41,West,269,1.0,8.0,63,0.00,,,0.00,Wunderground v.1.15,2013-01-19 04:15:00,
2013-01-18 23:20:00,19.3,8.8,30.40,WSW,254,1.0,8.0,63,0.00,,,0.00,Wunderground v.1.15,2013-01-19 04:20:00,
2013-01-18 23:25:00,19.4,8.8,30.40,West,265,1.0,8.0,63,0.00,,,0.00,Wunderground v.1.15,2013-01-19 04:25:00,
2013-01-18 23:30:00,19.4,8.8,30.40,WSW,254,2.0,2.0,63,0.00,,,0.00,Wunderground v.1.15,2013-01-19 04:30:00,
2013-01-18 23:35:00,19.4,8.8,30.39,West,276,2.0,8.0,63,0.00,,,0.00,Wunderground v.1.15,2013-01-19 04:35:00,
2013-01-18 23:45:00,19.6,9.4,30.40,NW,317,2.0,8.0,64,0.00,,,0.00,Wunderground v.1.15,2013-01-19 04:45:00,
2013-01-18 23:50:00,19.7,9.5,30.39,West,271,2.0,8.0,64,0.00,,,0.00,Wunderground v.1.15,2013-01-19 04:50:00,
2013-01-18 23:55:00,19.8,9.2,30.39,SW,234,2.0,8.0,63,0.00,,,0.00,Wunderground v.1.15,2013-01-19 04:55:00,